Location: Newark
(48.1500°N, 2.9667°W)
Time: 22:59:40
(UTC+00:00)

A-11 Canister half - Pass Details

Date: 22 January 2020
Orbit: 1524 x 1684 km, 47.3° (Epoch: 20 February)

Event Time Altitude Azimuth Distance (km) Brightness Sun altitude
Rises 17:17:09 0° 203° (SSW) 4,662 12.4 -4.1°
Reaches altitude 10° 17:20:36 10° 193° (SSW) 3,690 11.6 -4.6°
Maximum altitude 17:28:23 31° 136° (SE) 2,452 9.9 -5.8°
Drops below altitude 10° 17:36:19 10° 79° (ENE) 3,780 10.4 -7.0°
Enters shadow 17:37:07 - 76° (ENE) 3,998 10.5 -7.2°
Sets 17:39:52 0° 70° (ENE) 4,791 - -7.6°
